Lubbock, TX

3:39 PM CST on December 15, 2019 (GMT -0600)
Lubbock International

Weather History for KLBB - May, 2019

Change the Weather History Date:

Thursday, May 16, 2019

  Actual Average Record
Temperature  
Mean Temperature 74 °F 70 °F  
Max Temperature 86 °F 84 °F 102 °F (1996)
Min Temperature 63 °F 56 °F 37 °F (1945)
Degree Days  
Heating Degree Days 0 1  
Month to date heating degree days 51 29  
Since 1 July heating degree days 3448 3366  
Cooling Degree Days 10 6  
Month to date cooling degree days 50 72  
Year to date cooling degree days 113 128  
Growing Degree Days 24 (Base 50)    
Moisture  
Dew Point 58 °F    
Average Humidity 60    
Maximum Humidity 84    
Minimum Humidity 33    
Precipitation  
Precipitation 0.00 in 0.07 in 0.82 in (1953)
Month to date precipitation 0.69 0.97  
Year to date precipitation 3.61 4.88  
Snow  
Snow 0.00 in 0.00 in T in (1993)
Month to date snowfall T 0.0  
Since 1 July snowfall 10.1 8.2  
Snow Depth 0.00 in    
Sea Level Pressure  
Sea Level Pressure 29.84 in    
Wind  
Wind Speed 14 mph ()    
Max Wind Speed 25 mph    
Max Gust Speed 32 mph    
Visibility 9.9 miles    
Events      
T = Trace of Precipitation, MM = Missing Value Source: Averaged Metar Reports

Daily Weather History Graph

Daily Weather History Graph

Search for Another Location

Airport or City:

Astronomy

May. 16, 2019 Rise Set
Actual Time 6:45 AM CDT 8:41 PM CDT
Civil Twilight 6:18 AM CDT 9:09 PM CDT
Nautical Twilight 5:45 AM CDT 9:42 PM CDT
Astronomical Twilight 5:09 AM CDT 10:18 PM CDT
Moon 6:33 PM CDT (5/16) 5:33 AM CDT (5/16)
Length of Visible Light 14h 50m
Length of Day
13h 55m
Waxing Gibbous, 94% of the Moon is Illuminated
May 16
Waxing Gibbous
May 18
Full
May 26
Last Quarter
Jun 3
New
Jun 10
First Quarter

Hourly Weather History & Observations

Time (CDT) Temp. Heat Index Dew Point Humidity Pressure Visibility Wind Dir Wind Speed Gust Speed Precip Events Conditions
12:53 AM 68.0 °F - 52.0 °F 56% 29.89 in 10.0 mi South 12.7 mph - N/A   Clear
1:53 AM 68.0 °F - 53.1 °F 59% 29.87 in 10.0 mi South 15.0 mph - N/A   Clear
2:53 AM 66.9 °F - 54.0 °F 63% 29.86 in 10.0 mi South 13.8 mph - N/A   Clear
3:53 AM 64.9 °F - 55.0 °F 70% 29.85 in 10.0 mi South 12.7 mph - N/A   Partly Cloudy
4:53 AM 63.0 °F - 55.9 °F 78% 29.86 in 10.0 mi South 11.5 mph - N/A   Partly Cloudy
5:53 AM 64.0 °F - 57.9 °F 80% 29.86 in 10.0 mi SSW 10.4 mph - N/A   Partly Cloudy
6:53 AM 64.0 °F - 59.0 °F 84% 29.87 in 10.0 mi SSW 11.5 mph - N/A   Partly Cloudy
7:53 AM 66.9 °F - 61.0 °F 81% 29.88 in 10.0 mi SSW 18.4 mph 24.2 mph N/A   Partly Cloudy
8:49 AM 69.8 °F - 62.6 °F 78% 30.03 in 10.0 mi SSW 18.4 mph - N/A   Mostly Cloudy
8:53 AM 69.1 °F - 62.1 °F 78% 29.89 in 10.0 mi SSW 20.7 mph - N/A   Mostly Cloudy
9:53 AM 66.9 °F - 61.0 °F 81% 29.91 in 7.0 mi South 17.3 mph - N/A   Overcast
10:48 AM 71.6 °F - 60.8 °F 69% 30.03 in 10.0 mi SSW 17.3 mph - N/A   Overcast
10:53 AM 72.0 °F - 61.0 °F 68% 29.90 in 10.0 mi SSW 15.0 mph - N/A   Mostly Cloudy
11:10 AM 72.0 °F - 60.1 °F 66% 30.02 in 10.0 mi SSW 18.4 mph - N/A   Scattered Clouds
11:53 AM 75.0 °F - 61.0 °F 62% 29.87 in 10.0 mi SSW 10.4 mph - N/A   Scattered Clouds
12:53 PM 80.1 °F 80.7 °F 59.0 °F 48% 29.86 in 10.0 mi South 18.4 mph - N/A   Partly Cloudy
1:53 PM 81.0 °F 81.0 °F 57.0 °F 44% 29.83 in 10.0 mi South 19.6 mph 26.5 mph N/A   Mostly Cloudy
2:53 PM 82.9 °F 82.1 °F 55.9 °F 39% 29.80 in 10.0 mi South 16.1 mph 26.5 mph N/A   Mostly Cloudy
3:53 PM 84.9 °F 83.2 °F 53.1 °F 33% 29.78 in 10.0 mi South 15.0 mph 26.5 mph N/A   Overcast
4:53 PM 84.9 °F 83.6 °F 55.0 °F 36% 29.76 in 10.0 mi SSE 19.6 mph 31.1 mph N/A   Overcast
5:53 PM 84.9 °F 83.3 °F 54.0 °F 34% 29.73 in 10.0 mi South 16.1 mph - N/A   Mostly Cloudy
6:53 PM 84.0 °F 82.9 °F 55.0 °F 37% 29.73 in 10.0 mi South 20.7 mph 27.6 mph N/A   Mostly Cloudy
7:53 PM 80.1 °F 80.2 °F 55.9 °F 43% 29.72 in 10.0 mi South 18.4 mph - N/A   Mostly Cloudy
8:53 PM 75.9 °F - 57.9 °F 54% 29.72 in 10.0 mi SSE 16.1 mph - N/A   Mostly Cloudy
9:53 PM 73.9 °F - 57.9 °F 57% 29.73 in 10.0 mi SSE 18.4 mph - N/A   Overcast
10:53 PM 72.0 °F - 59.0 °F 64% 29.75 in 10.0 mi SSE 19.6 mph - N/A   Overcast
11:53 PM 71.1 °F - 60.1 °F 68% 29.75 in 10.0 mi South 15.0 mph - N/A   Overcast